Probability
0 0 0 0 0 0 0 0 0 0 0 0 0 0 0 0 0 0 0 1 4 5 4 2 1 0 0 0 0 0 0 0 0 0 1 1 1 0 0 0 0 0 0
0 0 0 0 0 0 0 0 0 0 0 0 0 0 0 0 0 0 0 1 2 3 2 1 1 0 0 0 0 1 1 0 0 0 0 0 0 0 0 0 0 0 0
0 0 0 0 0 0 0 0 0 0 0 0 0 0 0 0 0 0 0 0 1 2 1 1 1 0 0 0 0 1 2 1 0 0 0 0 0 0 0 0 0 0 0
0 0 0 0 0 0 0 0 0 0 0 0 0 0 0 0 0 0 0 0 1 2 1 1 1 0 0 0 0 1 2 2 1 1 0 0 0 0 0 0 0 0 0
0 0 0 0 0 0 0 0 0 0 0 0 0 0 0 0 0 0 0 0 1 2 1 1 0 0 0 0 0 1 2 3 3 3 1 0 0 0 0 0 0 0 0
0 0 0 0 0 0 0 0 0 0 0 0 0 0 0 0 0 0 0 0 0 1 1 0 0 0 0 0 0 1 2 3 4 3 1 0 0 0 0 0 0 0 0
0 0 0 0 0 0 0 0 0 0 0 0 0 0 0 0 0 0 0 0 0 0 0 0 0 0 0 0 0 1 1 2 2 1 0 0 0 0 0 0 0 0 0
0 0 0 0 0 0 0 0 0 0 0 0 0 0 0 0 0 0 0 0 0 0 0 0 0 0 0 0 0 0 0 1 1 0 0 0 0 0 0 0 0 0 0
0 0 0 0 0 0 0 0 0 0 0 0 0 0 0 0 0 0 0 0 0 0 0 0 0 0 0 0 0 0 0 0 0 0 0 0 0 0 0 0 0 0 0
0 0 0 0 0 0 0 0 0 0 0 0 0 0 0 0 0 0 0 0 0 0 0 0 0 0 0 0 0 0 0 0 0 0 0 0 0 0 0 0 0 0 0
0 0 0 0 0 0 0 0 0 0 0 0 0 0 0 0 0 0 0 0 0 0 0 0 0 0 0 0 0 0 0 0 0 0 0 0 0 0 0 0 0 0 0
0 0 0 0 0 0 0 0 0 0 0 0 0 0 0 0 0 0 0 0 0 0 0 0 0 0 0 0 0 0 0 0 0 0 0 0 0 0 0 0 0 0 0
0 0 0 0 0 0 0 0 0 0 0 0 0 0 0 0 0 0 0 0 0 0 0 0 0 0 0 0 0 0 0 0 0 0 0 0 0 0 0 0 0 0 0
0 0 0 0 0 0 0 0 0 0 0 0 0 0 0 0 0 0 0 0 0 0 0 0 0 0 0 0 0 0 0 0 0 0 0 0 0 0 0 0 0 0 0
0 0 0 0 0 0 0 0 0 0 0 0 0 0 0 0 0 0 0 0 0 0 0 0 0 0 0 0 0 0 0 0 0 0 0 0 0 0 0 0 0 0 0
0 0 0 0 0 0 0 0 0 0 0 0 0 0 0 0 0 0 0 0 0 0 0 0 0 0 0 0 0 0 0 0 0 0 0 0 0 0 0 0 0 0 0
0 0 0 0 0 0 0 0 0 0 0 0 0 0 0 0 0 0 0 0 0 0 0 0 0 0 0 0 0 0 0 0 0 0 0 0 0 0 0 0 0 0 0
0 0 0 0 0 0 0 0 0 0 0 0 0 0 0 0 0 0 0 0 0 0 0 0 0 0 0 0 0 0 0 0 0 0 0 0 0 0 0 0 0 0 0
0 0 0 0 0 0 0 0 0 0 0 0 0 0 0 0 0 0 0 0 0 0 0 0 0 0 0 0 0 0 0 0 0 0 0 0 0 0 0 0 0 0 0
0 0 0 0 0 0 0 0 0 0 0 0 0 0 0 0 0 0 0 0 0 0 0 0 0 0 0 0 0 0 0 0 0 0 0 0 0 0 0 0 0 0 0
0 0 0 0 0 0 0 0 0 0 0 0 0 0 0 0 0 0 0 0 0 0 0 0 0 0 0 0 0 0 0 0 0 0 0 0 0 0 0 0 0 0 0
0 0 0 0 0 0 0 0 0 0 0 0 0 0 0 0 0 0 0 0 0 0 0 0 0 0 0 0 0 0 0 0 0 0 0 0 0 0 0 0 0 0 0
0 0 0 0 0 0 0 0 0 0 0 0 0 0 0 0 0 0 0 0 0 0 0 0 0 0 0 0 0 0 0 0 0 0 0 0 0 0 0 0 0 0 0
0 0 0 0 0 0 0 0 0 0 0 0 0 0 0 0 0 0 0 0 0 0 0 0 0 0 0 0 0 0 0 0 0 0 0 0 0 0 0 0 0 0 0
0 0 0 0 0 0 0 0 0 0 0 0 0 0 0 0 0 0 0 0 0 0 0 0 0 0 0 0 0 0 0 0 0 0 0 0 0 0 0 0 0 0 0
0 0 0 0 0 0 0 0 0 0 0 0 0 0 0 0 0 0 0 0 0 0 0 0 0 0 0 0 0 0 0 0 0 0 0 0 0 0 0 0 0 0 0
Wind_Speed
2 2 1 1 1 1 1 1 1 1 2 2 2 2 2 2 2 2 2 5 5 4 3 2 2 2 2 2 2 2 2 2 2 2 2 3 3 3 3 3 4 4 4
3 2 2 1 1 1 1 1 1 1 1 1 2 2 2 2 2 2 2 3 5 5 4 3 2 2 2 2 1 2 2 2 1 2 2 2 2 3 3 4 4 4 4
3 3 2 1 1 1 2 2 2 2 2 2 2 2 2 2 2 2 2 2 2 4 5 4 3 3 3 3 2 2 2 2 1 1 2 2 2 2 3 4 4 4 4
3 3 2 1 1 1 2 2 2 2 2 2 1 2 2 2 2 2 2 2 2 2 3 5 4 4 4 4 4 3 3 2 2 2 2 3 3 3 3 4 4 4 5
4 3 2 2 2 2 2 2 2 2 2 1 1 1 1 1 1 2 2 2 2 1 1 3 5 5 4 4 5 4 3 3 3 3 3 3 4 3 4 4 5 5 5
4 4 3 3 3 2 2 2 2 2 2 1 1 2 1 1 1 1 1 2 2 3 2 2 2 3 5 5 5 5 4 4 4 4 4 4 4 4 4 5 6 6 6
4 4 3 3 3 3 3 3 2 2 2 1 2 2 2 1 1 1 1 1 2 2 2 2 2 1 2 5 6 5 6 6 6 5 5 5 5 5 5 6 7 7 7
4 4 4 3 3 3 3 3 3 2 1 1 1 1 1 3 2 1 1 1 2 2 2 3 2 2 2 2 4 6 6 6 6 6 6 6 6 6 6 7 8 8 8
3 4 4 4 4 4 4 4 4 4 2 1 1 2 2 2 2 2 1 1 2 2 2 2 2 2 2 2 2 5 6 6 7 7 7 7 7 7 7 8 9 9 9
4 4 4 4 4 4 4 4 4 2 3 2 0 0 0 2 1 2 3 2 2 2 2 3 2 2 2 2 3 5 6 6 7 7 8 8 9 8 8 9 9 9 10
3 3 4 4 4 3 4 4 3 3 2 3 2 1 1 0 1 1 2 3 3 2 2 3 2 2 2 2 3 4 6 7 7 7 8 8 9 9 10 10 10 10 10
2 3 3 4 4 3 4 4 4 4 3 3 2 2 2 2 2 2 2 3 3 3 3 2 2 2 2 2 4 6 6 7 7 7 8 8 9 10 10 11 10 11 11
3 4 4 4 3 3 4 4 4 3 3 3 3 2 2 1 1 2 2 2 3 3 2 2 2 2 2 2 3 6 6 7 7 8 8 8 9 10 10 10 11 11 11
4 4 4 4 4 4 3 4 3 3 3 3 3 3 2 2 1 2 2 1 1 3 2 3 2 2 2 2 4 6 4 7 8 8 9 9 9 9 9 10 11 11 11
3 4 4 4 4 4 4 4 3 3 3 3 3 3 2 2 1 1 1 2 2 2 4 3 2 2 2 2 4 3 3 6 8 8 8 9 9 9 9 10 10 11 11
4 4 5 5 4 4 4 4 3 3 3 3 2 3 3 2 2 1 2 1 2 2 3 3 3 3 4 4 5 3 3 6 7 8 9 9 9 10 10 10 10 11 12
5 5 5 5 5 5 5 4 4 4 4 3 3 3 4 2 2 2 1 1 2 2 4 4 3 3 3 4 4 3 3 3 4 8 8 9 10 10 10 10 10 11 12
5 5 5 5 5 5 5 6 6 5 5 5 4 4 4 3 3 2 2 3 3 3 3 5 4 3 4 3 3 4 3 3 3 7 8 9 9 10 10 10 10 11 10
4 5 5 5 5 5 5 6 6 5 6 6 5 5 5 4 4 3 3 3 3 3 3 4 5 3 3 3 3 3 3 3 4 5 8 8 9 10 10 10 10 9 9
4 5 5 5 5 5 5 5 5 5 5 5 5 5 5 5 6 5 4 4 3 3 3 3 4 4 3 3 2 3 4 3 4 4 6 6 8 9 10 10 9 9 9
4 4 4 4 4 5 5 5 5 5 5 5 5 5 5 6 7 6 4 4 4 3 3 3 4 4 4 3 3 3 4 4 4 3 3 4 4 4 5 7 7 9 10
3 3 4 4 5 4 6 8 6 5 5 5 5 4 4 5 6 8 8 7 6 5 5 4 4 5 6 5 4 3 3 3 4 2 2 5 3 4 4 3 7 10 10
3 4 4 5 5 6 8 8 8 5 5 5 5 4 4 4 5 5 6 7 7 9 9 6 6 7 6 5 4 4 4 5 6 3 3 6 3 5 4 5 10 11 11
4 4 4 5 5 6 8 8 7 5 4 5 5 5 5 5 5 5 4 4 5 6 7 6 6 7 6 4 5 5 5 5 5 3 2 5 4 5 5 4 9 10 10
4 4 3 4 5 6 7 8 6 4 4 5 4 4 5 5 7 7 4 5 5 5 6 7 8 8 8 8 5 3 3 3 5 3 1 3 3 4 5 5 6 9 10
4 3 3 4 5 5 7 7 6 3 4 4 3 4 6 7 8 7 5 5 6 6 4 4 4 5 5 5 6 4 4 4 4 4 2 2 2 3 5 4 3 4 5
Wind_Direction
140 133 125 114 108 101 105 97 92 86 72 59 58 60 51 46 34 22 7 19 27 34 43 58 65 62 58 60 58 60 56 51 37 24 15 14 5 7 11 0 353 356 358
149 148 142 140 133 129 121 116 110 98 82 75 66 66 65 54 44 38 26 8 21 28 29 31 40 45 42 38 39 42 33 24 9 6 0 358 356 356 352 355 351 345 346
151 153 148 153 156 136 114 97 85 79 76 69 62 50 59 52 45 45 36 18 4 16 22 24 24 25 23 14 5 4 358 348 338 334 336 331 331 333 333 340 336 335 332
153 148 142 155 150 120 106 111 103 87 72 64 49 33 35 34 41 47 45 28 11 11 6 19 16 11 8 0 350 336 327 328 333 329 316 315 310 313 315 321 321 322 319
156 149 151 157 141 120 111 124 96 99 94 73 60 42 22 13 24 46 45 31 16 13 10 12 11 6 356 345 338 328 322 322 321 317 299 301 302 301 304 307 307 307 307
159 152 153 153 144 130 120 114 105 81 93 104 76 42 358 343 24 42 24 28 21 16 21 19 9 358 351 337 327 323 322 317 315 311 302 293 292 291 294 298 298 298 299
163 157 154 155 151 150 148 137 117 98 76 72 76 25 353 355 16 17 17 26 14 1 4 7 9 358 338 335 327 320 310 312 312 307 305 298 290 288 290 294 292 292 293
169 163 158 163 160 149 140 139 125 120 104 84 109 97 342 332 341 340 4 359 348 348 346 352 357 353 342 329 329 326 314 309 308 306 304 300 291 286 288 292 292 291 293
174 167 168 166 166 162 165 167 159 146 147 175 111 139 155 233 309 323 328 325 344 337 327 331 333 339 334 326 313 319 317 314 310 306 307 307 302 293 292 295 295 291 293
182 179 176 175 171 168 167 175 171 161 145 164 186 359 160 160 170 308 318 324 333 316 308 312 314 316 315 302 308 317 314 310 307 304 305 308 309 307 300 296 296 293 293
187 189 182 178 176 176 176 174 172 172 168 165 168 162 132 45 127 185 279 313 325 301 293 287 284 293 298 295 291 296 306 304 303 302 302 302 303 305 305 301 297 296 296
187 190 185 186 185 183 182 182 182 181 183 167 166 162 160 165 189 192 231 280 296 298 294 279 275 280 293 297 294 306 302 301 300 299 299 302 304 304 303 302 301 300 302
201 203 189 187 190 194 187 179 179 188 187 180 185 197 197 192 175 176 195 253 283 296 302 293 269 278 300 294 289 299 300 306 306 304 303 304 304 304 303 301 302 302 304
205 193 190 188 185 187 187 179 180 191 188 194 201 198 201 214 202 191 180 183 291 299 292 280 293 279 300 293 293 303 296 302 306 308 307 305 306 304 303 302 301 302 304
193 185 188 188 185 185 190 180 186 191 187 197 204 200 204 218 208 207 185 181 185 258 280 278 290 302 306 297 296 298 292 305 307 305 307 308 308 306 305 304 303 305 306
187 182 187 191 191 189 190 188 193 192 187 205 210 206 215 218 212 206 207 219 209 213 258 274 283 299 310 310 305 303 291 308 308 309 308 307 307 305 305 306 308 309 308
190 188 191 193 195 196 191 194 203 194 198 210 214 212 224 220 217 219 219 226 225 218 252 282 288 299 301 300 311 309 304 299 299 304 307 311 309 306 304 304 307 307 306
196 193 190 191 197 199 195 198 206 203 206 214 217 216 227 223 225 220 217 225 229 227 234 272 287 288 286 286 296 301 306 303 291 297 304 307 305 303 302 303 304 303 303
196 192 189 192 199 202 203 205 206 207 212 218 217 217 223 215 228 230 227 231 237 242 237 253 277 284 286 292 301 300 299 300 296 299 301 301 301 300 301 303 304 304 306
195 196 197 200 202 204 206 207 207 210 215 221 222 222 222 218 225 226 228 233 236 241 239 247 269 281 284 285 286 295 304 301 296 306 298 299 299 302 301 302 304 306 305
201 201 199 204 205 206 208 205 208 209 216 224 226 226 228 227 234 232 233 231 226 233 236 246 262 278 279 279 275 282 286 300 292 284 296 295 297 296 296 295 299 301 302
203 200 206 208 212 219 220 216 213 213 219 225 233 236 237 231 239 243 245 240 229 228 233 239 253 260 270 272 274 270 280 294 291 276 285 288 280 280 284 278 289 296 298
206 210 215 213 220 229 227 224 220 217 223 229 232 235 242 244 236 239 246 247 246 245 241 238 247 253 259 259 267 270 264 266 269 274 292 286 282 281 285 287 294 291 291
212 218 220 221 227 236 231 229 224 221 228 233 232 231 236 243 237 236 238 245 251 253 250 244 244 252 258 255 245 251 257 275 283 270 262 278 286 284 291 287 287 289 293
218 222 217 218 226 239 233 230 223 221 230 238 237 232 233 241 245 242 238 245 261 269 270 259 260 265 267 267 263 262 262 274 285 278 255 270 288 299 294 283 282 289 295
221 217 224 225 227 239 237 230 219 216 231 242 244 238 233 240 246 241 232 233 249 262 267 278 274 277 271 264 261 246 238 252 276 275 241 257 282 314 301 283 284 294 293